"Period start","avg(HW err(1)/warn(2) (#))","avg(Visibility (m))","avg(Weather code (#))","avg(Precip intensity (mm/h))","min(HW err(1)/warn(2) (#))","max(HW err(1)/warn(2) (#))","std(HW err(1)/warn(2) (#))","med(HW err(1)/warn(2) (#))","min(Visibility (m))","max(Visibility (m))","std(Visibility (m))","med(Visibility (m))","min(Weather code (#))","max(Weather code (#))","std(Weather code (#))","med(Weather code (#))","min(Precip intensity (mm/h))","max(Precip intensity (mm/h))","std(Precip intensity (mm/h))","med(Precip intensity (mm/h))"
2016-08-30 00:00:00,2,48656,0,0.00,2,2,0,2,41946,50000,2476,50000,0,0,0,0,0.00,0.00,0.00,0.00
2016-08-30 00:10:00,2,37406,0,0.00,2,2,0,2,24818,50000,9969,38359,0,0,0,0,0.00,0.00,0.00,0.00
2016-08-30 00:20:00,2,37424,0,0.00,2,2,0,2,19533,48188,8612,38766,0,0,0,0,0.00,0.00,0.00,0.00
2016-08-30 00:30:00,2,42959,0,0.00,2,2,0,2,34579,50000,5213,44526,0,0,0,0,0.00,0.00,0.00,0.00
2016-08-30 00:40:00,2,47673,45,0.09,2,2,0,2,37828,50000,3737,49347,0,61,24,61,0.00,0.45,0.15,0.00
2016-08-30 00:50:00,2,36284,0,0.00,2,2,0,2,21676,50000,10550,38957,0,0,0,0,0.00,0.00,0.00,0.00
2016-08-30 01:00:00,2,46196,0,0.00,0,2,1,2,33588,50000,5722,49134,0,0,0,0,0.00,0.00,0.00,0.00
2016-08-30 01:10:00,2,48079,0,0.00,2,2,0,2,43112,50000,2747,50000,0,0,0,0,0.00,0.00,0.00,0.00
2016-08-30 01:20:00,2,40366,0,0.00,2,2,0,2,33380,50000,5824,39302,0,0,0,0,0.00,0.00,0.00,0.00
2016-08-30 01:30:00,2,48529,0,0.00,2,2,0,2,46268,50000,1673,49649,0,0,0,0,0.00,0.00,0.00,0.00
2016-08-30 01:40:00,2,50000,0,0.00,2,2,0,2,50000,50000,0,50000,0,0,0,0,0.00,0.00,0.00,0.00
2016-08-30 01:50:00,2,47410,0,0.00,2,2,0,2,40439,50000,3389,50000,0,0,0,0,0.00,0.00,0.00,0.00
2016-08-30 02:00:00,2,47041,0,0.00,2,2,0,2,41963,50000,3165,48114,0,0,0,0,0.00,0.00,0.00,0.00
2016-08-30 02:10:00,2,47634,0,0.00,2,2,0,2,42026,50000,3131,49408,0,0,0,0,0.00,0.00,0.00,0.00
2016-08-30 02:20:00,2,46749,0,0.00,2,2,0,2,36000,50000,4957,50000,0,0,0,0,0.00,0.00,0.00,0.00
2016-08-30 02:30:00,2,43563,0,0.00,2,2,0,2,31401,50000,5493,43482,0,0,0,0,0.00,0.00,0.00,0.00
2016-08-30 02:40:00,2,32285,0,0.00,2,2,0,2,17350,49767,7917,31276,0,0,0,0,0.00,0.00,0.00,0.00
2016-08-30 02:50:00,2,39035,0,0.00,2,2,0,2,32104,50000,5729,37624,0,0,0,0,0.00,0.00,0.00,0.00
2016-08-30 03:00:00,2,43222,0,0.00,2,2,0,2,33337,50000,5829,44434,0,0,0,0,0.00,0.00,0.00,0.00
2016-08-30 03:10:00,2,35742,0,0.00,0,2,1,2,26418,47762,6276,34074,0,0,0,0,0.00,0.00,0.00,0.00
2016-08-30 03:20:00,2,42855,0,0.00,0,2,1,2,34617,50000,5402,43348,0,0,0,0,0.00,0.00,0.00,0.00
2016-08-30 03:30:00,2,46015,0,0.00,2,2,0,2,38734,50000,4345,47717,0,0,0,0,0.00,0.00,0.00,0.00
2016-08-30 03:40:00,1,45906,0,0.00,0,2,1,2,33415,50000,4590,46862,0,0,0,0,0.00,0.00,0.00,0.00
2016-08-30 03:50:00,1,43774,0,0.00,0,2,1,2,33739,50000,5128,43230,0,0,0,0,0.00,0.00,0.00,0.00
2016-08-30 04:00:00,1,47302,0,0.00,0,2,1,1,39982,50000,3297,48553,0,0,0,0,0.00,0.00,0.00,0.00
2016-08-30 04:10:00,1,49305,0,0.00,0,2,1,0,44557,50000,1645,50000,0,0,0,0,0.00,0.00,0.00,0.00
2016-08-30 04:20:00,1,48003,0,0.00,0,2,1,0,44436,50000,2153,48848,0,0,0,0,0.00,0.00,0.00,0.00
2016-08-30 04:30:00,1,47757,0,0.00,0,2,1,0,39075,50000,3718,49905,0,0,0,0,0.00,0.00,0.00,0.00
2016-08-30 04:40:00,0,48885,0,0.00,0,0,0,0,43874,50000,2057,50000,0,0,0,0,0.00,0.00,0.00,0.00
2016-08-30 04:50:00,0,49900,0,0.00,0,0,0,0,49418,50000,203,50000,0,0,0,0,0.00,0.00,0.00,0.00
2016-08-30 05:00:00,0,47463,0,0.00,0,0,0,0,40920,50000,3286,49490,0,0,0,0,0.00,0.00,0.00,0.00
2016-08-30 05:10:00,0,49036,0,0.00,0,0,0,0,44863,50000,1932,50000,0,0,0,0,0.00,0.00,0.00,0.00
2016-08-30 05:20:00,0,49751,0,0.00,0,0,0,0,48626,50000,493,50000,0,0,0,0,0.00,0.00,0.00,0.00
2016-08-30 05:30:00,0,47990,0,0.00,0,2,1,0,40657,50000,2959,49954,0,0,0,0,0.00,0.00,0.00,0.00
2016-08-30 05:40:00,0,50000,0,0.00,0,0,0,0,50000,50000,0,50000,0,0,0,0,0.00,0.00,0.00,0.00
2016-08-30 05:50:00,0,49650,0,0.00,0,0,0,0,46890,50000,924,50000,0,0,0,0,0.00,0.00,0.00,0.00
2016-08-30 06:00:00,0,49950,0,0.00,0,0,0,0,49495,50000,152,50000,0,0,0,0,0.00,0.00,0.00,0.00
2016-08-30 06:10:00,0,50000,0,0.00,0,0,0,0,50000,50000,0,50000,0,0,0,0,0.00,0.00,0.00,0.00
2016-08-30 06:20:00,0,47787,0,0.00,0,0,0,0,43064,50000,2720,49222,0,0,0,0,0.00,0.00,0.00,0.00
2016-08-30 06:30:00,0,47780,0,0.00,0,0,0,0,39134,50000,3852,49854,0,0,0,0,0.00,0.00,0.00,0.00
2016-08-30 06:40:00,0,49610,0,0.00,0,0,0,0,47024,50000,905,50000,0,0,0,0,0.00,0.00,0.00,0.00
2016-08-30 06:50:00,0,48794,0,0.00,0,0,0,0,42819,50000,2171,50000,0,0,0,0,0.00,0.00,0.00,0.00
2016-08-30 07:00:00,0,48383,0,0.00,0,0,0,0,42854,50000,2283,50000,0,0,0,0,0.00,0.00,0.00,0.00
2016-08-30 07:10:00,0,49054,0,0.00,0,0,0,0,45424,50000,1736,50000,0,0,0,0,0.00,0.00,0.00,0.00
2016-08-30 07:20:00,0,50000,0,0.00,0,0,0,0,50000,50000,0,50000,0,0,0,0,0.00,0.00,0.00,0.00
2016-08-30 07:30:00,0,50000,0,0.00,0,0,0,0,50000,50000,0,50000,0,0,0,0,0.00,0.00,0.00,0.00
2016-08-30 07:40:00,0,49888,0,0.00,0,0,0,0,48875,50000,338,50000,0,0,0,0,0.00,0.00,0.00,0.00
2016-08-30 07:50:00,0,50000,0,0.00,0,0,0,0,50000,50000,0,50000,0,0,0,0,0.00,0.00,0.00,0.00
2016-08-30 08:00:00,0,50000,0,0.00,0,0,0,0,50000,50000,0,50000,0,0,0,0,0.00,0.00,0.00,0.00
2016-08-30 08:10:00,0,49739,0,0.00,0,0,0,0,48892,50000,432,50000,0,0,0,0,0.00,0.00,0.00,0.00
2016-08-30 08:20:00,0,49111,0,0.00,0,0,0,0,46968,50000,1359,50000,0,0,0,0,0.00,0.00,0.00,0.00
2016-08-30 08:30:00,0,49844,0,0.00,0,0,0,0,48443,50000,467,50000,0,0,0,0,0.00,0.00,0.00,0.00
2016-08-30 08:40:00,0,49709,0,0.00,0,0,0,0,48349,50000,589,50000,0,0,0,0,0.00,0.00,0.00,0.00
2016-08-30 08:50:00,0,49999,0,0.00,0,0,0,0,49991,50000,3,50000,0,0,0,0,0.00,0.00,0.00,0.00
2016-08-30 09:00:00,0,50000,0,0.00,0,0,0,0,50000,50000,0,50000,0,0,0,0,0.00,0.00,0.00,0.00
2016-08-30 09:10:00,0,50000,0,0.00,0,0,0,0,50000,50000,0,50000,0,0,0,0,0.00,0.00,0.00,0.00
2016-08-30 09:20:00,0,50000,0,0.00,0,0,0,0,50000,50000,0,50000,0,0,0,0,0.00,0.00,0.00,0.00
2016-08-30 09:30:00,0,50000,0,0.00,0,0,0,0,50000,50000,0,50000,0,0,0,0,0.00,0.00,0.00,0.00
2016-08-30 09:40:00,0,50000,0,0.00,0,0,0,0,50000,50000,0,50000,0,0,0,0,0.00,0.00,0.00,0.00
2016-08-30 09:50:00,0,50000,0,0.00,0,0,0,0,50000,50000,0,50000,0,0,0,0,0.00,0.00,0.00,0.00
2016-08-30 10:00:00,0,49503,0,0.00,0,0,0,0,45027,50000,1492,50000,0,0,0,0,0.00,0.00,0.00,0.00
2016-08-30 10:10:00,0,50000,0,0.00,0,0,0,0,50000,50000,0,50000,0,0,0,0,0.00,0.00,0.00,0.00
2016-08-30 10:20:00,0,50000,0,0.00,0,0,0,0,50000,50000,0,50000,0,0,0,0,0.00,0.00,0.00,0.00
2016-08-30 10:30:00,0,50000,0,0.00,0,0,0,0,50000,50000,0,50000,0,0,0,0,0.00,0.00,0.00,0.00
2016-08-30 10:40:00,0,50000,0,0.00,0,0,0,0,50000,50000,0,50000,0,0,0,0,0.00,0.00,0.00,0.00
2016-08-30 10:50:00,0,50000,0,0.00,0,0,0,0,50000,50000,0,50000,0,0,0,0,0.00,0.00,0.00,0.00
2016-08-30 11:00:00,0,45147,0,0.00,0,0,0,0,20165,50000,9565,50000,0,0,0,0,0.00,0.00,0.00,0.00
2016-08-30 11:10:00,0,46924,0,0.00,0,0,0,0,28810,50000,6536,50000,0,0,0,0,0.00,0.00,0.00,0.00
2016-08-30 11:20:00,0,50000,0,0.00,0,0,0,0,50000,50000,0,50000,0,0,0,0,0.00,0.00,0.00,0.00
2016-08-30 11:30:00,0,43104,0,0.00,0,0,0,0,19351,50000,10885,49684,0,0,0,0,0.00,0.00,0.00,0.00
2016-08-30 11:40:00,0,50000,0,0.00,0,0,0,0,50000,50000,0,50000,0,0,0,0,0.00,0.00,0.00,0.00
2016-08-30 11:50:00,0,50000,0,0.00,0,0,0,0,50000,50000,0,50000,0,0,0,0,0.00,0.00,0.00,0.00
2016-08-30 12:00:00,0,50000,0,0.00,0,0,0,0,50000,50000,0,50000,0,0,0,0,0.00,0.00,0.00,0.00
2016-08-30 12:10:00,0,50000,0,0.00,0,0,0,0,50000,50000,0,50000,0,0,0,0,0.00,0.00,0.00,0.00
2016-08-30 12:20:00,0,50000,0,0.00,0,0,0,0,50000,50000,0,50000,0,0,0,0,0.00,0.00,0.00,0.00
2016-08-30 12:30:00,0,50000,0,0.00,0,0,0,0,50000,50000,0,50000,0,0,0,0,0.00,0.00,0.00,0.00
2016-08-30 12:40:00,0,50000,0,0.00,0,0,0,0,50000,50000,0,50000,0,0,0,0,0.00,0.00,0.00,0.00
2016-08-30 12:50:00,0,50000,0,0.00,0,0,0,0,50000,50000,0,50000,0,0,0,0,0.00,0.00,0.00,0.00
2016-08-30 13:00:00,0,49716,51,0.16,0,0,0,0,47162,50000,851,50000,41,61,6,51,0.00,0.45,0.15,0.12
2016-08-30 13:10:00,0,50000,16,0.01,0,0,0,0,50000,50000,0,50000,0,61,25,0,0.00,0.15,0.05,0.00
2016-08-30 13:20:00,0,50000,0,0.00,0,0,0,0,50000,50000,0,50000,0,0,0,0,0.00,0.00,0.00,0.00
2016-08-30 13:30:00,0,50000,0,0.00,0,0,0,0,50000,50000,0,50000,0,0,0,0,0.00,0.00,0.00,0.00
2016-08-30 13:40:00,0,50000,0,0.00,0,0,0,0,50000,50000,0,50000,0,0,0,0,0.00,0.00,0.00,0.00
2016-08-30 13:50:00,0,50000,0,0.00,0,0,0,0,50000,50000,0,50000,0,0,0,0,0.00,0.00,0.00,0.00
2016-08-30 14:00:00,0,50000,0,0.00,0,0,0,0,50000,50000,0,50000,0,0,0,0,0.00,0.00,0.00,0.00
2016-08-30 14:10:00,0,50000,0,0.00,0,0,0,0,50000,50000,0,50000,0,0,0,0,0.00,0.00,0.00,0.00
2016-08-30 14:20:00,0,50000,0,0.00,0,0,0,0,50000,50000,0,50000,0,0,0,0,0.00,0.00,0.00,0.00
2016-08-30 14:30:00,0,50000,0,0.00,0,0,0,0,50000,50000,0,50000,0,0,0,0,0.00,0.00,0.00,0.00
2016-08-30 14:40:00,0,50000,0,0.00,0,0,0,0,50000,50000,0,50000,0,0,0,0,0.00,0.00,0.00,0.00
2016-08-30 14:50:00,0,50000,0,0.00,0,0,0,0,50000,50000,0,50000,0,0,0,0,0.00,0.00,0.00,0.00
2016-08-30 15:00:00,0,50000,0,0.00,0,0,0,0,50000,50000,0,50000,0,0,0,0,0.00,0.00,0.00,0.00
2016-08-30 15:10:00,0,50000,0,0.00,0,0,0,0,50000,50000,0,50000,0,0,0,0,0.00,0.00,0.00,0.00
2016-08-30 15:20:00,0,50000,0,0.00,0,0,0,0,50000,50000,0,50000,0,0,0,0,0.00,0.00,0.00,0.00
2016-08-30 15:30:00,0,50000,0,0.00,0,0,0,0,50000,50000,0,50000,0,0,0,0,0.00,0.00,0.00,0.00
2016-08-30 15:40:00,0,50000,0,0.00,0,0,0,0,50000,50000,0,50000,0,0,0,0,0.00,0.00,0.00,0.00
2016-08-30 15:50:00,0,50000,0,0.00,0,0,0,0,50000,50000,0,50000,0,0,0,0,0.00,0.00,0.00,0.00
2016-08-30 16:00:00,0,50000,0,0.00,0,0,0,0,50000,50000,0,50000,0,0,0,0,0.00,0.00,0.00,0.00
2016-08-30 16:10:00,0,47259,38,0.18,0,0,0,0,38996,50000,3245,48190,0,61,25,51,0.00,0.60,0.19,0.15
2016-08-30 16:20:00,0,44621,58,1.40,0,0,0,0,31143,50000,6335,46982,52,61,4,61,0.05,4.45,1.35,1.12
2016-08-30 16:30:00,0,39486,57,1.55,0,0,0,0,9073,50000,15150,48476,51,61,5,61,0.00,6.65,2.46,0.28
2016-08-30 16:40:00,0,24995,61,6.47,0,0,0,0,5715,50000,17455,17395,61,62,0,61,0.00,20.15,7.06,3.10
2016-08-30 16:50:00,0,50000,6,0.00,0,0,0,0,50000,50000,0,50000,0,61,18,0,0.00,0.00,0.00,0.00
2016-08-30 17:00:00,0,50000,0,0.00,0,0,0,0,50000,50000,0,50000,0,0,0,0,0.00,0.00,0.00,0.00
2016-08-30 17:10:00,0,50000,0,0.00,0,0,0,0,50000,50000,0,50000,0,0,0,0,0.00,0.00,0.00,0.00
2016-08-30 17:20:00,0,50000,0,0.00,0,0,0,0,50000,50000,0,50000,0,0,0,0,0.00,0.00,0.00,0.00
2016-08-30 17:30:00,0,50000,0,0.00,0,0,0,0,50000,50000,0,50000,0,0,0,0,0.00,0.00,0.00,0.00
2016-08-30 17:40:00,0,50000,0,0.00,0,0,0,0,50000,50000,0,50000,0,0,0,0,0.00,0.00,0.00,0.00
2016-08-30 17:50:00,0,50000,0,0.00,0,0,0,0,50000,50000,0,50000,0,0,0,0,0.00,0.00,0.00,0.00
2016-08-30 18:00:00,0,50000,0,0.00,0,0,0,0,50000,50000,0,50000,0,0,0,0,0.00,0.00,0.00,0.00
2016-08-30 18:10:00,0,50000,0,0.00,0,0,0,0,50000,50000,0,50000,0,0,0,0,0.00,0.00,0.00,0.00
2016-08-30 18:20:00,0,50000,0,0.00,0,0,0,0,50000,50000,0,50000,0,0,0,0,0.00,0.00,0.00,0.00
2016-08-30 18:30:00,0,50000,0,0.00,0,0,0,0,50000,50000,0,50000,0,0,0,0,0.00,0.00,0.00,0.00
2016-08-30 18:40:00,0,46473,48,0.55,0,0,0,0,34156,50000,5980,50000,0,61,17,52,0.00,1.45,0.55,0.23
2016-08-30 18:50:00,0,48835,57,0.94,0,0,0,0,40950,50000,2740,50000,51,61,5,61,0.05,3.25,1.05,0.50
2016-08-30 19:00:00,0,47588,55,1.02,0,0,0,0,38241,50000,4438,50000,51,61,5,51,0.15,3.70,1.03,0.53
2016-08-30 19:10:00,0,48416,35,0.29,0,0,0,0,41113,50000,2828,50000,0,61,28,51,0.00,1.65,0.50,0.00
2016-08-30 19:20:00,0,50000,0,0.00,0,0,0,0,50000,50000,0,50000,0,0,0,0,0.00,0.00,0.00,0.00
2016-08-30 19:30:00,0,50000,6,0.00,0,0,0,0,50000,50000,0,50000,0,61,18,0,0.00,0.00,0.00,0.00
2016-08-30 19:40:00,0,48908,16,0.02,0,0,0,0,45242,50000,1861,50000,0,61,25,0,0.00,0.10,0.03,0.00
2016-08-30 19:50:00,0,46776,18,0.22,0,0,0,0,35635,50000,4896,50000,0,61,28,0,0.00,1.55,0.46,0.00
2016-08-30 20:00:00,0,48990,50,0.20,0,0,0,0,46122,50000,1560,50000,0,61,17,51,0.00,0.90,0.25,0.15
2016-08-30 20:10:00,0,49782,0,0.00,0,0,0,0,48483,50000,476,50000,0,0,0,0,0.00,0.00,0.00,0.00
2016-08-30 20:20:00,0,46080,0,0.00,0,0,0,0,29861,50000,7134,50000,0,0,0,0,0.00,0.00,0.00,0.00
2016-08-30 20:30:00,0,46003,0,0.00,0,0,0,0,29700,50000,6666,50000,0,0,0,0,0.00,0.00,0.00,0.00
2016-08-30 20:40:00,0,50000,0,0.00,0,0,0,0,50000,50000,0,50000,0,0,0,0,0.00,0.00,0.00,0.00
2016-08-30 20:50:00,0,50000,0,0.00,0,0,0,0,50000,50000,0,50000,0,0,0,0,0.00,0.00,0.00,0.00
2016-08-30 21:00:00,0,48637,24,0.57,0,0,0,0,39350,50000,3221,50000,0,61,30,0,0.00,1.75,0.72,0.00
2016-08-30 21:10:00,0,49084,52,0.15,0,0,0,0,41847,50000,2431,50000,0,61,18,61,0.00,1.15,0.34,0.00
2016-08-30 21:20:00,0,50000,0,0.00,0,0,0,0,50000,50000,0,50000,0,0,0,0,0.00,0.00,0.00,0.00
2016-08-30 21:30:00,0,44695,55,1.79,0,0,0,0,33000,50000,5583,46311,0,61,18,61,0.00,6.45,1.79,1.43
2016-08-30 21:40:00,0,44692,61,1.80,0,0,0,0,30590,50000,6249,47522,61,61,0,61,0.35,6.50,1.78,1.05
2016-08-30 21:50:00,0,44836,46,1.49,0,0,0,0,22211,50000,9550,50000,0,61,23,56,0.00,8.00,2.58,0.25
2016-08-30 22:00:00,0,24085,61,2.53,0,0,0,0,12303,47734,10427,22240,61,61,0,61,0.50,8.30,2.12,2.22
2016-08-30 22:10:00,0,43232,53,0.65,0,0,0,0,25828,50000,9048,49123,0,61,18,61,0.00,4.15,1.22,0.10
2016-08-30 22:20:00,0,43462,28,0.86,0,0,0,0,22562,50000,7963,46456,0,61,28,26,0.00,3.20,1.13,0.18
2016-08-30 22:30:00,0,28207,47,0.61,0,0,0,0,11608,41726,9227,30172,0,52,16,52,0.00,1.65,0.61,0.40
2016-08-30 22:40:00,0,49461,0,0.00,0,0,0,0,44607,50000,1618,50000,0,0,0,0,0.00,0.00,0.00,0.00
2016-08-30 22:50:00,0,50000,0,0.00,0,0,0,0,50000,50000,0,50000,0,0,0,0,0.00,0.00,0.00,0.00
2016-08-30 23:00:00,0,40560,0,0.00,0,0,0,0,27263,50000,9320,42722,0,0,0,0,0.00,0.00,0.00,0.00
2016-08-30 23:10:00,0,42432,17,0.02,0,0,0,0,14630,50000,11731,50000,0,61,27,0,0.00,0.20,0.06,0.00
2016-08-30 23:20:00,0,50000,0,0.00,0,0,0,0,50000,50000,0,50000,0,0,0,0,0.00,0.00,0.00,0.00
2016-08-30 23:30:00,0,33208,37,6.06,0,0,0,0,11387,50000,17294,39716,0,62,30,61,0.00,23.65,7.58,1.98
2016-08-30 23:40:00,0,14226,61,6.12,0,0,0,0,9274,38767,8427,11266,61,62,0,61,0.00,31.05,9.32,1.80
2016-08-30 23:50:00,0,49865,0,0.00,0,0,0,0,48652,50000,404,50000,0,0,0,0,0.00,0.00,0.00,0.00
